• In Uzbekistan
  • List of Countries
  • For 7 days
  • Water Temperature
  • Satellite Maps
  • Weather Map
  • Weather Widgets
  • user-avatar
    Login

    Hourly Weather Banbury

    Today, 18 November, Saturday

    Time Temperature Precipitation Wind Pressure Humidity
    00:00 +1°C° 0 mm 3 mps 758 mmHg 92%
    01:00 +1°C° 0 mm 3 mps 758 mmHg 92%
    02:00 +1°C° 0 mm 3 mps 758 mmHg 92%
    03:00 +1°C° 0 mm 3 mps 758 mmHg 92%
    04:00 +1°C° 0 mm 3 mps 757 mmHg 93%
    05:00 +1°C° 0 mm 3 mps 757 mmHg 93%
    06:00 +1°C° 0 mm 3 mps 757 mmHg 93%
    07:00 +2°C° 0 mm 3 mps 756 mmHg 93%
    08:00 +3°C° 0 mm 3 mps 756 mmHg 92%
    09:00 +4°C° 0 mm 3 mps 756 mmHg 92%
    10:00 +5°C° 0.3 mm 3 mps 756 mmHg 92%
    11:00 +5°C° 0.3 mm 3 mps 756 mmHg 91%
    12:00 +7°C° 0.3 mm 3 mps 756 mmHg 91%
    13:00 +7°C° 0 mm 2 mps 755 mmHg 89%
    14:00 +8°C° 0 mm 2 mps 755 mmHg 88%
    15:00 +8°C° 0 mm 2 mps 755 mmHg 86%
    16:00 +7°C° 0 mm 2 mps 755 mmHg 87%
    17:00 +6°C° 0 mm 2 mps 755 mmHg 88%
    18:00 +5°C° 0 mm 2 mps 755 mmHg 90%
    19:00 +5°C° 0 mm 2 mps 756 mmHg 90%
    20:00 +5°C° 0 mm 2 mps 756 mmHg 90%
    21:00 +4°C° 0 mm 2 mps 756 mmHg 91%
    22:00 +4°C° 0 mm 2 mps 756 mmHg 91%
    23:00 +4°C° 0 mm 2 mps 756 mmHg 91%

    Tomorrow, 19 November, Sunday

    Time Temperature Precipitation Wind Pressure Humidity
    00:00 +3°C° 0 mm 2 mps 756 mmHg 91%
    01:00 +3°C° 0 mm 2 mps 756 mmHg 91%
    02:00 +3°C° 0 mm 2 mps 757 mmHg 91%
    03:00 +2°C° 0 mm 2 mps 757 mmHg 91%
    04:00 +2°C° 0 mm 2 mps 757 mmHg 91%
    05:00 +2°C° 0 mm 2 mps 757 mmHg 91%
    06:00 +2°C° 0 mm 2 mps 757 mmHg 91%
    07:00 +2°C° 0 mm 2 mps 757 mmHg 90%
    08:00 +4°C° 0 mm 1 mps 757 mmHg 88%
    09:00 +4°C° 0 mm 1 mps 758 mmHg 87%
    10:00 +5°C° 0 mm 1 mps 758 mmHg 84%
    11:00 +6°C° 0 mm 1 mps 758 mmHg 81%
    12:00 +7°C° 0 mm 1 mps 758 mmHg 78%
    13:00 +7°C° 0 mm 1 mps 758 mmHg 80%
    14:00 +6°C° 0 mm 2 mps 757 mmHg 81%
    15:00 +6°C° 0 mm 2 mps 757 mmHg 82%
    16:00 +5°C° 0 mm 2 mps 757 mmHg 85%
    17:00 +5°C° 0 mm 2 mps 756 mmHg 87%
    18:00 +3°C° 0 mm 3 mps 756 mmHg 90%
    19:00 +4°C° 0 mm 3 mps 756 mmHg 91%
    20:00 +4°C° 0 mm 3 mps 755 mmHg 93%
    21:00 +4°C° 0 mm 4 mps 755 mmHg 95%
    22:00 +5°C° 0 mm 4 mps 755 mmHg 95%
    23:00 +6°C° 0 mm 4 mps 754 mmHg 95%

    Day after tomorrow, 20 November, Monday

    Time Temperature Precipitation Wind Pressure Humidity
    00:00 +7°C° 0 mm 5 mps 754 mmHg 95%
    01:00 +7°C° 0 mm 5 mps 753 mmHg 94%
    02:00 +8°C° 0 mm 6 mps 753 mmHg 93%
    03:00 +8°C° 0 mm 6 mps 752 mmHg 92%
    04:00 +8°C° 0 mm 6 mps 751 mmHg 91%
    05:00 +9°C° 0 mm 7 mps 751 mmHg 91%
    06:00 +9°C° 0 mm 7 mps 750 mmHg 90%
    07:00 +9°C° 0 mm 7 mps 750 mmHg 90%
    08:00 +10°C° 0 mm 7 mps 750 mmHg 89%
    09:00 +10°C° 0 mm 8 mps 749 mmHg 88%
    10:00 +10°C° 0.1 mm 8 mps 749 mmHg 88%
    11:00 +11°C° 0.1 mm 8 mps 749 mmHg 88%
    12:00 +11°C° 0.1 mm 9 mps 748 mmHg 87%
    13:00 +11°C° 0.3 mm 8 mps 748 mmHg 88%
    14:00 +11°C° 0.3 mm 8 mps 748 mmHg 88%
    15:00 +11°C° 0.3 mm 7 mps 747 mmHg 88%
    16:00 +11°C° 0.1 mm 6 mps 748 mmHg 89%
    17:00 +11°C° 0.1 mm 6 mps 748 mmHg 90%
    18:00 +10°C° 0.1 mm 5 mps 748 mmHg 91%
    19:00 +10°C° 0 mm 5 mps 748 mmHg 92%
    20:00 +11°C° 0 mm 4 mps 748 mmHg 93%
    21:00 +10°C° 0 mm 4 mps 749 mmHg 94%
    22:00 +10°C° 0 mm 4 mps 749 mmHg 94%
    23:00 +10°C° 0 mm 3 mps 749 mmHg 95%

    21 November, Tuesday

    Time Temperature Precipitation Wind Pressure Humidity
    00:00 +10°C° 0 mm 3 mps 749 mmHg 96%
    01:00 +10°C° 0.1 mm 3 mps 749 mmHg 96%
    02:00 +11°C° 0.1 mm 3 mps 749 mmHg 96%
    03:00 +11°C° 0.1 mm 3 mps 748 mmHg 96%
    04:00 +11°C° 0 mm 4 mps 748 mmHg 96%
    05:00 +11°C° 0 mm 4 mps 748 mmHg 95%
    06:00 +10°C° 0 mm 5 mps 747 mmHg 95%
    07:00 +10°C° 0 mm 5 mps 747 mmHg 94%
    08:00 +9°C° 0 mm 5 mps 747 mmHg 93%
    09:00 +9°C° 0 mm 5 mps 747 mmHg 92%
    10:00 +10°C° 0 mm 6 mps 747 mmHg 89%
    11:00 +10°C° 0 mm 6 mps 747 mmHg 87%
    12:00 +11°C° 0 mm 6 mps 747 mmHg 84%
    13:00 +11°C° 0 mm 6 mps 747 mmHg 84%
    14:00 +11°C° 0 mm 6 mps 747 mmHg 83%
    15:00 +12°C° 0 mm 5 mps 746 mmHg 83%
    16:00 +10°C° 0 mm 5 mps 746 mmHg 85%
    17:00 +10°C° 0 mm 4 mps 746 mmHg 87%
    18:00 +10°C° 0 mm 4 mps 746 mmHg 89%
    19:00 +8°C° 0 mm 4 mps 746 mmHg 90%
    20:00 +8°C° 0 mm 4 mps 746 mmHg 92%
    21:00 +8°C° 0 mm 5 mps 746 mmHg 93%
    22:00 +8°C° 0 mm 5 mps 746 mmHg 93%
    23:00 +8°C° 0 mm 5 mps 746 mmHg 92%

    22 November, Wednesday

    Time Temperature Precipitation Wind Pressure Humidity
    00:00 +9°C° 0 mm 5 mps 745 mmHg 92%
    01:00 +9°C° 0 mm 5 mps 745 mmHg 92%
    02:00 +9°C° 0 mm 5 mps 745 mmHg 92%
    03:00 +9°C° 0 mm 5 mps 744 mmHg 92%
    04:00 +9°C° 0 mm 5 mps 744 mmHg 92%
    05:00 +9°C° 0 mm 5 mps 744 mmHg 91%
    06:00 +10°C° 0 mm 6 mps 743 mmHg 91%
    07:00 +10°C° 0 mm 6 mps 743 mmHg 91%
    08:00 +10°C° 0 mm 6 mps 743 mmHg 91%
    09:00 +10°C° 0 mm 6 mps 743 mmHg 91%
    10:00 +10°C° 0 mm 7 mps 742 mmHg 84%
    11:00 +11°C° 0 mm 7 mps 742 mmHg 78%
    12:00 +12°C° 0 mm 7 mps 742 mmHg 71%
    13:00 +12°C° 0 mm 7 mps 741 mmHg 71%
    14:00 +12°C° 0 mm 7 mps 740 mmHg 72%
    15:00 +11°C° 0 mm 7 mps 740 mmHg 72%
    16:00 +11°C° 0 mm 7 mps 739 mmHg 73%
    17:00 +10°C° 0 mm 7 mps 739 mmHg 73%
    18:00 +10°C° 0 mm 7 mps 738 mmHg 74%
    19:00 +10°C° 0 mm 7 mps 737 mmHg 74%
    20:00 +10°C° 0 mm 7 mps 737 mmHg 74%
    21:00 +9°C° 0 mm 8 mps 736 mmHg 74%
    22:00 +10°C° 0.4 mm 8 mps 735 mmHg 77%
    23:00 +10°C° 0.4 mm 8 mps 735 mmHg 79%

    23 November, Thursday

    Time Temperature Precipitation Wind Pressure Humidity
    00:00 +10°C° 0.4 mm 9 mps 734 mmHg 82%
    01:00 +11°C° 0.5 mm 9 mps 733 mmHg 81%
    02:00 +11°C° 0.5 mm 10 mps 732 mmHg 80%
    03:00 +11°C° 0.5 mm 10 mps 731 mmHg 80%
    04:00 +11°C° 0.3 mm 10 mps 731 mmHg 81%
    05:00 +11°C° 0.3 mm 9 mps 731 mmHg 82%
    06:00 +11°C° 0.3 mm 9 mps 731 mmHg 84%
    07:00 +11°C° 0 mm 9 mps 732 mmHg 84%
    08:00 +11°C° 0 mm 9 mps 733 mmHg 84%
    09:00 +11°C° 0 mm 9 mps 734 mmHg 84%
    10:00 +12°C° 0.1 mm 9 mps 734 mmHg 82%
    11:00 +12°C° 0.1 mm 9 mps 735 mmHg 80%
    12:00 +13°C° 0.1 mm 9 mps 736 mmHg 78%
    13:00 +13°C° 0 mm 9 mps 736 mmHg 79%
    14:00 +13°C° 0 mm 8 mps 737 mmHg 80%
    15:00 +14°C° 0 mm 7 mps 737 mmHg 81%
    16:00 +12°C° 0 mm 7 mps 737 mmHg 84%
    17:00 +12°C° 0 mm 7 mps 737 mmHg 86%
    18:00 +12°C° 0 mm 7 mps 738 mmHg 89%
    19:00 +12°C° 0.1 mm 7 mps 738 mmHg 88%
    20:00 +14°C° 0.1 mm 7 mps 738 mmHg 88%
    21:00 +14°C° 0.1 mm 7 mps 738 mmHg 88%
    22:00 +14°C° 0.1 mm 7 mps 739 mmHg 89%
    23:00 +12°C° 0.1 mm 7 mps 739 mmHg 89%
    Show more